NWS Home NWS Lubbock West Texas Mesonet North Sector Latest Conditions as of 0227 AM, Sun Mar 24, 2019

Latest   N   C   S   Daily Sum   3hrΔ   24hrΔ   Soil Data 
Site Map   24hr Precip   72hr Precip   Google Plot


Station Time of Last Temp Dew Pt. RH Wind Direction Wind Speed Wind Gust Max Wind Max Temp Min Temp Max RH Min RH Altimeter 1HR Rain Today's Rain Solar Rad
Adrian 6WSW  02:20 AM 42 36 78% N1013 20 mph 12° @ 0205 AM 50 42 79 44 30.06" 0 0.00 0
Aiken 3WSW  02:20 AM 41 27 56% SW89 13 mph 272° @ 1240 AM 45 40 60 50 30.01" 0 0.00 0
Amarillo 15NNW   02:20 AM 44 38 77% NE1114 22 mph 315° @ 0113 AM 53 44 77 53 30.00" 0 0.00 0
Amarillo 7SSE  02:20 AM 41 36 79% W1313 18 mph 230° @ 0207 AM 46 38 94 72 29.99" 0 0.00 0
Amarillo 9NNE  02:20 AM 44 37 76% N912 20 mph 329° @ 0130 AM 54 44 76 50 29.99" 0 0.00 0
Amherst 1NE  02:20 AM 47 24 41% W1112 14 mph 251° @ 0135 AM 51 46 43 32 30.01" 0 0.00 0
Bootleg 11WNW  02:20 AM 46 28 51% NW1317 17 mph 316° @ 0216 AM 47 42 56 45 30.07" 0 0.00 0
Boys Ranch 1WSW  02:20 AM 45 37 75% W78 26 mph 33° @ 0122 AM 49 40 78 56 30.04" 0 0.00 0
Canadian 6E  02:20 AM 47 40 76% N1518 20 mph 359° @ 0122 AM 50 45 76 57 29.96" 0 0.00 0
Caprock Canyons State Park  02:20 AM 60 21 22% SW1214 23 mph 248° @ 0138 AM 62 55 31 21 29.97" 0 0.00 0
Childress 2NNE  02:10 AM 51 42 74% SE88 11 mph 117° @ 1245 AM 55 51 74 64 29.93" 0 0.00 0
Clarendon 2WSW  02:20 AM 46 36 69% SW24 16 mph 133° @ 1245 AM 54 45 73 55 29.95" 0 0.00 0
Claude 12SW  02:20 AM 54 31 41% SW78 15 mph 224° @ 0218 AM 54 51 54 41 29.97" 0 0.00 0
Dimmitt 2NE  02:20 AM 45 32 59% W1011 14 mph 261° @ 0130 AM 49 44 63 48 30.01" 0 0.00 0
Dozier 3W  02:20 AM 51 41 68% W66 6 mph 249° @ 0220 AM 53 50 71 62 29.95" 0 0.00 0
Earth 9WSW  02:20 AM 46 24 42% SW910 18 mph 229° @ 1231 AM 59 42 54 22 30.03" 0 0.00 0
Endee NM 2SW  02:20 AM 44 35 72% N1113 22 mph 4° @ 0153 AM 51 44 72 39 30.06" 0 0.00 0
Estelline 3SSE  02:20 AM 48 40 75% SW66 12 mph 116° @ 1226 AM 58 47 75 54 29.94" 0 0.00 0
Floydada 2NNE  02:20 AM 42 25 51% W89 16 mph 203° @ 1215 AM 57 42 51 24 29.99" 0 0.00 0
Friona 2NE  02:20 AM 41 33 73% W910 15 mph 244° @ 0105 AM 47 40 73 53 30.03" 0 0.00 0
Fritch 1WNW  02:20 AM 46 38 73% NE911 21 mph 39° @ 0124 AM 52 46 73 54 30.01" 0 0.00 0
Goodlett 3W  02:20 AM 52 41 67% SE67 14 mph 109° @ 1235 AM 55 51 71 64 29.92" 0 0.00 0
Goodnight  02:20 AM 51 38 63% S67 12 mph 224° @ 0137 AM 52 48 74 57 29.98" 0 0.00 0
Happy 1E  02:20 AM 44 34 67% W1214 17 mph 262° @ 0154 AM 46 42 73 62 30.00" 0 0.00 0
Hart 3N  02:20 AM 41 28 60% W1015 15 mph 266° @ 0220 AM 44 40 62 49 30.01" 0 0.00 0
Hereford 2NW  02:20 AM 45 32 62% NW1113 16 mph 288° @ 0130 AM 46 41 76 59 30.00" 0 0.00 0
Lake McClellan 2NW  02:20 AM 52 36 53% S1011 17 mph 160° @ 0154 AM 54 51 57 48 29.96" 0 0.00 0
Lesley 2S  02:20 AM 55 42 62% SE44 12 mph 87° @ 0124 AM 56 49 74 54 29.94" 0 0.00 0
McLean 1E  02:20 AM 52 37 59% S911 13 mph 141° @ 0140 AM 53 51 61 54 29.94" 0 0.00 0
Memphis 1NE  02:20 AM 46 41 84% NW35 8 mph 95° @ 1215 AM 56 46 84 60 29.94" 0 0.00 0
Muleshoe 2SSW  02:20 AM 41 26 54% SW56 10 mph 227° @ 1210 AM 46 40 57 40 30.02" 0 0.00 0
Northfield 1S  01:40 AM 52 36 55% SE35 11 mph 53° @ 1220 AM 56 52 56 41 29.94" 0 0.00 0
Odell 4ENE  02:20 AM 55 42 63% SE1011 15 mph 95° @ 1234 AM 59 52 74 59 29.93" 0 0.00 0
Olton 6S  02:20 AM 45 25 46% W1112 15 mph 258° @ 1205 AM 47 42 54 45 30.00" 0 0.00 0
Palo Duro 4E (JA Ranch)  02:20 AM 42 36 79% SW44 9 mph 254° @ 1212 AM 50 41 80 61 29.96" 0 0.00 0
Palo Duro Canyon SP Floor  02:20 AM 43 38 83% NW67 7 mph 309° @ 0220 AM 47 43 88 79 29.97" 0 0.00 0
Palo Duro Canyon State Park Rim  02:20 AM 50 32 51% W1720 20 mph 254° @ 0220 AM 52 47 63 47 29.99" 0 0.00 0
Palo Duro Reservoir 1NW   02:20 AM 40 37 88% N1314 15 mph 353° @ 1214 AM 44 39 90 80 30.02" 0 0.00 0
Pampa 2E  02:20 AM 46 36 70% N69 19 mph 333° @ 0145 AM 51 44 79 59 30.00" 0 0.00 0
Panhandle 1SSW  02:20 AM 48 36 64% NE710 19 mph 328° @ 0201 AM 50 45 76 61 29.99" 0 0.00 0
Plainview 1S  02:20 AM 45 28 52% SW67 12 mph 257° @ 1215 AM 51 45 52 39 29.99" 0 0.00 0
Romero 11 SSW  02:20 AM 43 37 79% N810 36 mph 354° @ 1250 AM 52 43 79 46 30.04" 0 0.00 0
Silverton 7ESE  02:20 AM 47 27 46% SW1214 14 mph 232° @ 0130 AM 49 45 56 44 29.98" 0 0.00 0
South Plains 3ENE  02:20 AM 47 26 44% SW810 16 mph 283° @ 0110 AM 51 45 48 37 29.98" 0 0.00 0
Stinnett 1NNW  02:20 AM 42 38 86% N1517 26 mph 358° @ 1224 AM 53 42 86 50 30.01" 0 0.00 0
Tulia 2ENE  02:20 AM 50 26 40% W1418 18 mph 251° @ 0220 AM 51 49 42 38 29.99" 0 0.00 0
Turkey 2WSW  02:20 AM 50 29 45% SW1213 17 mph 227° @ 0210 AM 56 50 45 32 29.95" 0 0.00 0
Umbarger 3NNE  02:20 AM 45 35 69% NW1517 20 mph 299° @ 0214 AM 46 43 81 67 30.00" 0 0.00 0
Vigo Park  02:20 AM 43 29 57% W1011 13 mph 224° @ 1234 AM 45 41 61 55 29.99" 0 0.00 0

West Texas Mesonet Home   Site Map/Menu  NWS Lubbock Soil Data  Daily Summary Page  24hr Precip  72hr Precip  Google Plot